User: anonymous   Login
Location: Unspecified
(0.0000°N, 0.0000°E)
Time: 10:51:40
(UTC+00:00)
Language:

CBERS-4 - Orbit

View from above orbital plane
View from above orbital plane
View from above satellite
View from above satellite

Ground track
Ground track

The orbit data is extracted from the following two-line orbital elements,

1 40336U 14079A   18201.21656088 -.00000186  00000-0 -49703-4 0  9999
2 40336  98.4123 271.9923 0000882  70.5636 289.5612 14.35484586189518
Epoch (UTC): 20 July 2018 05:11:50
Eccentricity: 0.0000882
inclination: 98.4123°
perigee height: 773 km
apogee height: 774 km
right ascension of ascending node: 271.9923°
argument of perigee: 70.5636°
revolutions per day: 14.35484586
mean anomaly at epoch: 289.5612°
orbit number at epoch: 18951

The dashed part of the orbit path shows where the satellite is in the earth's shadow,  

DLR